Time,TemperatureF,DewpointF,PressureIn,WindDirection,WindDirectionDegrees,WindSpeedMPH,WindSpeedGustMPH,Humidity,HourlyPrecipIn,Conditions,Clouds,dailyrainin,SolarRadiationWatts/m^2,SoftwareType,DateUTC
2013-10-29 00:24:00,37.0,33.0,-100.00,NE,44,2.0,8.0,85,0.00,,,0.00,0.000000,,2013-10-29 04:24:00,
2013-10-29 00:39:00,37.0,33.0,-100.00,NE,44,2.0,8.0,85,0.00,,,0.00,0.000000,,2013-10-29 04:39:00,
2013-10-29 01:22:00,36.0,33.0,-100.00,NNE,20,0.0,11.0,87,0.00,,,0.00,0.000000,,2013-10-29 05:22:00,
2013-10-29 01:33:00,36.0,33.0,-100.00,NNE,20,0.0,11.0,87,0.00,,,0.00,0.000000,,2013-10-29 05:33:00,
2013-10-29 01:45:00,36.0,33.0,-100.00,NNE,20,0.0,11.0,87,0.00,,,0.00,0.000000,,2013-10-29 05:45:00,
2013-10-29 02:26:00,36.0,33.0,-100.00,NNE,21,0.0,0.0,89,0.00,,,0.00,0.000000,,2013-10-29 06:26:00,
2013-10-29 02:34:00,36.0,33.0,-100.00,NNE,21,0.0,0.0,89,0.00,,,0.00,0.000000,,2013-10-29 06:34:00,
2013-10-29 02:43:00,36.0,33.0,-100.00,NNE,21,0.0,0.0,89,0.00,,,0.00,0.000000,,2013-10-29 06:43:00,
2013-10-29 03:11:00,36.0,33.0,-100.00,NNE,29,3.0,48.0,89,0.00,,,0.00,0.000000,,2013-10-29 07:11:00,
2013-10-29 03:25:00,36.0,33.0,-100.00,NNE,29,3.0,48.0,89,0.00,,,0.00,0.000000,,2013-10-29 07:25:00,
2013-10-29 03:32:00,36.0,33.0,-100.00,NNE,29,3.0,48.0,89,0.00,,,0.00,0.000000,,2013-10-29 07:32:00,
2013-10-29 03:44:00,36.0,33.0,-100.00,NNE,29,3.0,48.0,89,0.00,,,0.00,0.000000,,2013-10-29 07:44:00,
2013-10-29 04:13:00,38.0,32.0,-100.00,NE,53,7.0,57.0,80,0.00,,,0.00,0.000000,,2013-10-29 08:13:00,
2013-10-29 04:24:00,38.0,32.0,-100.00,NE,53,7.0,57.0,80,0.00,,,0.00,0.000000,,2013-10-29 08:24:00,
2013-10-29 04:32:00,38.0,32.0,-100.00,NE,53,7.0,57.0,80,0.00,,,0.00,0.000000,,2013-10-29 08:32:00,
2013-10-29 04:42:00,38.0,32.0,-100.00,NE,53,7.0,57.0,80,0.00,,,0.00,0.000000,,2013-10-29 08:42:00,
2013-10-29 05:22:00,40.0,32.0,-100.00,ENE,60,7.0,14.0,73,0.00,,,0.00,0.000000,,2013-10-29 09:22:00,
2013-10-29 05:33:00,40.0,32.0,-100.00,ENE,60,7.0,14.0,73,0.00,,,0.00,0.000000,,2013-10-29 09:33:00,
2013-10-29 05:43:00,40.0,32.0,-100.00,ENE,60,7.0,14.0,73,0.00,,,0.00,0.000000,,2013-10-29 09:43:00,
2013-10-29 06:13:00,38.0,33.0,-100.00,ENE,63,6.0,32.0,81,0.00,,,0.00,0.000000,,2013-10-29 10:13:00,
2013-10-29 06:23:00,38.0,33.0,-100.00,ENE,63,6.0,32.0,81,0.00,,,0.00,0.000000,,2013-10-29 10:23:00,
2013-10-29 06:33:00,38.0,33.0,-100.00,ENE,63,6.0,32.0,81,0.00,,,0.00,0.000000,,2013-10-29 10:33:00,
2013-10-29 06:42:00,38.0,33.0,-100.00,ENE,63,6.0,32.0,81,0.00,,,0.00,0.000000,,2013-10-29 10:42:00,
2013-10-29 07:12:00,39.0,32.0,-100.00,NE,53,3.0,145.0,77,0.00,,,0.00,0.000000,,2013-10-29 11:12:00,
2013-10-29 07:22:00,39.0,32.0,-100.00,NE,53,3.0,145.0,77,0.00,,,0.00,0.000000,,2013-10-29 11:22:00,
2013-10-29 07:33:00,39.0,32.0,-100.00,NE,53,3.0,145.0,77,0.00,,,0.00,0.000000,,2013-10-29 11:33:00,
2013-10-29 07:42:00,39.0,32.0,-100.00,NE,53,3.0,145.0,77,0.00,,,0.00,0.000000,,2013-10-29 11:42:00,
2013-10-29 08:12:00,39.0,32.0,-100.00,NE,51,4.0,12.0,75,0.00,,,0.00,0.000000,,2013-10-29 12:12:00,
2013-10-29 08:21:00,39.0,32.0,-100.00,NE,51,4.0,12.0,75,0.00,,,0.00,0.000000,,2013-10-29 12:21:00,
2013-10-29 08:32:00,39.0,32.0,-100.00,NE,51,4.0,12.0,75,0.00,,,0.00,0.000000,,2013-10-29 12:32:00,
2013-10-29 08:42:00,39.0,32.0,-100.00,NE,51,4.0,12.0,75,0.00,,,0.00,0.000000,,2013-10-29 12:42:00,
2013-10-29 09:12:00,40.0,34.0,-100.00,ENE,60,6.0,11.0,78,0.00,,,0.00,31.000000,,2013-10-29 13:12:00,
2013-10-29 09:22:00,40.0,34.0,-100.00,ENE,60,6.0,11.0,78,0.00,,,0.00,31.000000,,2013-10-29 13:22:00,
2013-10-29 09:32:00,40.0,34.0,-100.00,ENE,60,6.0,11.0,78,0.00,,,0.00,31.000000,,2013-10-29 13:32:00,
2013-10-29 09:42:00,40.0,34.0,-100.00,ENE,60,6.0,11.0,78,0.00,,,0.00,31.000000,,2013-10-29 13:42:00,
2013-10-29 10:22:00,44.0,36.0,-100.00,East,99,6.0,13.0,74,0.00,,,0.00,151.000000,,2013-10-29 14:22:00,
2013-10-29 10:32:00,44.0,36.0,-100.00,East,99,6.0,13.0,74,0.00,,,0.00,151.000000,,2013-10-29 14:32:00,
2013-10-29 10:42:00,44.0,36.0,-100.00,East,99,6.0,13.0,74,0.00,,,0.00,151.000000,,2013-10-29 14:42:00,
2013-10-29 11:11:00,48.0,38.0,-100.00,ESE,117,4.0,18.0,67,0.00,,,0.00,219.000000,,2013-10-29 15:11:00,
2013-10-29 11:22:00,48.0,38.0,-100.00,ESE,117,4.0,18.0,67,0.00,,,0.00,219.000000,,2013-10-29 15:22:00,
2013-10-29 11:33:00,48.0,38.0,-100.00,ESE,117,4.0,18.0,67,0.00,,,0.00,219.000000,,2013-10-29 15:33:00,
2013-10-29 11:44:00,48.0,38.0,-100.00,ESE,117,4.0,18.0,67,0.00,,,0.00,219.000000,,2013-10-29 15:44:00,
2013-10-29 12:13:00,50.0,38.0,-100.00,East,100,7.0,10.0,64,0.00,,,0.00,245.000000,,2013-10-29 16:13:00,
2013-10-29 12:23:00,50.0,38.0,-100.00,East,100,7.0,10.0,64,0.00,,,0.00,245.000000,,2013-10-29 16:23:00,
2013-10-29 12:33:00,50.0,38.0,-100.00,East,100,7.0,10.0,64,0.00,,,0.00,245.000000,,2013-10-29 16:33:00,
2013-10-29 12:43:00,50.0,38.0,-100.00,East,100,7.0,10.0,64,0.00,,,0.00,245.000000,,2013-10-29 16:43:00,
2013-10-29 13:22:00,52.0,38.0,-100.00,ESE,110,2.0,11.0,59,0.00,,,0.00,217.000000,,2013-10-29 17:22:00,
2013-10-29 13:34:00,52.0,38.0,-100.00,ESE,110,2.0,11.0,59,0.00,,,0.00,217.000000,,2013-10-29 17:34:00,
2013-10-29 13:42:00,52.0,38.0,-100.00,ESE,110,2.0,11.0,59,0.00,,,0.00,217.000000,,2013-10-29 17:42:00,
2013-10-29 14:22:00,55.0,41.0,-100.00,East,79,3.0,5.0,59,0.00,,,0.00,207.000000,,2013-10-29 18:22:00,
2013-10-29 14:32:00,55.0,41.0,-100.00,East,79,3.0,5.0,59,0.00,,,0.00,207.000000,,2013-10-29 18:32:00,
2013-10-29 14:42:00,55.0,41.0,-100.00,East,79,3.0,5.0,59,0.00,,,0.00,207.000000,,2013-10-29 18:42:00,
2013-10-29 16:22:00,57.0,45.0,-100.00,SE,127,4.0,6.0,63,-99.99,,,0.00,174.000000,,2013-10-29 20:22:00,
2013-10-29 16:32:00,57.0,45.0,-100.00,SE,127,4.0,6.0,63,-99.99,,,0.00,174.000000,,2013-10-29 20:32:00,
2013-10-29 16:42:00,57.0,45.0,-100.00,SE,127,4.0,6.0,63,-99.99,,,0.00,174.000000,,2013-10-29 20:42:00,
2013-10-29 17:22:00,56.0,46.0,-100.00,SE,128,6.0,7.0,70,0.00,,,0.00,129.000000,,2013-10-29 21:22:00,
2013-10-29 17:34:00,56.0,46.0,-100.00,SE,128,6.0,7.0,70,0.00,,,0.00,129.000000,,2013-10-29 21:34:00,
2013-10-29 17:43:00,56.0,46.0,-100.00,SE,128,6.0,7.0,70,0.00,,,0.00,129.000000,,2013-10-29 21:43:00,
2013-10-29 18:14:00,56.0,48.0,-100.00,ESE,123,4.0,8.0,75,0.00,,,0.00,70.000000,,2013-10-29 22:14:00,
2013-10-29 18:23:00,56.0,48.0,-100.00,ESE,123,4.0,8.0,75,0.00,,,0.00,70.000000,,2013-10-29 22:23:00,
2013-10-29 18:34:00,56.0,48.0,-100.00,ESE,123,4.0,8.0,75,0.00,,,0.00,70.000000,,2013-10-29 22:34:00,
2013-10-29 18:43:00,56.0,48.0,-100.00,ESE,123,4.0,8.0,75,0.00,,,0.00,70.000000,,2013-10-29 22:43:00,
2013-10-29 19:13:00,54.0,48.0,-100.00,East,81,5.0,8.0,80,0.00,,,0.00,17.000000,,2013-10-29 23:13:00,
2013-10-29 19:22:00,54.0,48.0,-100.00,East,81,5.0,8.0,80,0.00,,,0.00,17.000000,,2013-10-29 23:22:00,
2013-10-29 19:33:00,54.0,48.0,-100.00,East,81,5.0,8.0,80,0.00,,,0.00,17.000000,,2013-10-29 23:33:00,
2013-10-29 19:43:00,54.0,48.0,-100.00,East,81,5.0,8.0,80,0.00,,,0.00,17.000000,,2013-10-29 23:43:00,
2013-10-29 20:22:00,52.0,45.0,-100.00,ESE,107,7.0,11.0,78,0.00,,,0.00,0.000000,,2013-10-30 00:22:00,
2013-10-29 20:32:00,52.0,45.0,-100.00,ESE,107,7.0,11.0,78,0.00,,,0.00,0.000000,,2013-10-30 00:32:00,
2013-10-29 20:42:00,52.0,45.0,-100.00,ESE,107,7.0,11.0,78,0.00,,,0.00,0.000000,,2013-10-30 00:42:00,
2013-10-29 21:12:00,52.0,45.0,-100.00,SW,216,0.0,9.0,78,0.00,,,0.00,0.000000,,2013-10-30 01:12:00,
2013-10-29 21:22:00,52.0,45.0,-100.00,SW,216,0.0,9.0,78,0.00,,,0.00,0.000000,,2013-10-30 01:22:00,
2013-10-29 21:32:00,52.0,45.0,-100.00,SW,216,0.0,9.0,78,0.00,,,0.00,0.000000,,2013-10-30 01:32:00,
2013-10-29 21:42:00,52.0,45.0,-100.00,SW,216,0.0,9.0,78,0.00,,,0.00,0.000000,,2013-10-30 01:42:00,
2013-10-29 22:11:00,51.0,46.0,-100.00,East,96,2.0,10.0,82,0.00,,,0.00,0.000000,,2013-10-30 02:11:00,
2013-10-29 22:22:00,51.0,46.0,-100.00,East,96,2.0,10.0,82,0.00,,,0.00,0.000000,,2013-10-30 02:22:00,
2013-10-29 22:32:00,51.0,46.0,-100.00,East,96,2.0,10.0,82,0.00,,,0.00,0.000000,,2013-10-30 02:32:00,
2013-10-29 22:42:00,51.0,46.0,-100.00,East,96,2.0,10.0,82,0.00,,,0.00,0.000000,,2013-10-30 02:42:00,
2013-10-29 23:11:00,50.0,47.0,-100.00,ENE,64,3.0,84.0,88,0.00,,,0.00,0.000000,,2013-10-30 03:11:00,
2013-10-29 23:22:00,50.0,47.0,-100.00,ENE,64,3.0,84.0,88,0.00,,,0.00,0.000000,,2013-10-30 03:22:00,
2013-10-29 23:34:00,50.0,47.0,-100.00,ENE,64,3.0,84.0,88,0.00,,,0.00,0.000000,,2013-10-30 03:34:00,
2013-10-29 23:44:00,50.0,47.0,-100.00,ENE,64,3.0,84.0,88,0.00,,,0.00,0.000000,,2013-10-30 03:44:00,